Location: Newark
(38.6492°N, 88.9193°W)
Time: 03:06:21
(UTC+00:00)

Envisat - Visible Passes

Search period start: 14 November 2019 00:00
Search period end: 24 November 2019 00:00
Orbit: 764 x 766 km, 98.1° (Epoch: 13 November)

Date Brightness Start Highest point End Pass type
(mag) Time Alt. Az. Time Alt. Az. Time Alt. Az.
14 Nov 3.6 00:19:00 10° S 00:23:59 57° W 00:29:00 10° NNW visible
14 Nov 3.0 23:42:15 10° SSE 23:47:14 63° ENE 23:52:16 10° N visible
15 Nov 6.0 01:24:07 10° WSW 01:26:39 14° W 01:29:12 10° WNW visible
15 Nov 5.7 11:53:11 10° NE 11:57:16 24° E 12:01:19 10° SSE visible
15 Nov 3.8 23:06:25 10° SE 23:10:41 28° ENE 23:14:58 10° N visible
16 Nov 4.8 00:45:06 10° SSW 00:49:35 32° W 00:54:06 10° NNW visible
17 Nov 3.2 00:07:38 10° S 00:12:42 74° WSW 00:17:47 10° NNW visible
17 Nov 3.2 23:31:09 10° SE 23:36:01 49° ENE 23:40:54 10° N visible
18 Nov 5.7 01:11:53 10° SW 01:15:17 18° W 01:18:40 10° NW visible
18 Nov 5.9 11:42:22 10° NE 11:45:54 19° E 11:49:26 10° SE visible
19 Nov 4.3 00:33:30 10° SSW 00:38:16 40° W 00:43:03 10° NNW visible
19 Nov 2.9 23:56:21 10° SSE 00:01:25 87° E 00:06:32 10° NNW visible
20 Nov 5.0 12:07:00 10° NNE 12:11:35 33° E 12:16:09 10° SSE visible
20 Nov 3.4 23:20:08 10° SE 23:24:48 38° ENE 23:29:29 10° N visible
21 Nov 5.3 00:59:57 10° SW 01:03:55 23° W 01:07:53 10° NW visible
21 Nov 6.1 11:31:45 10° ENE 11:34:32 15° E 11:37:18 10° SE visible
22 Nov 3.8 00:22:01 10° S 00:26:57 52° W 00:31:55 10° NNW visible
22 Nov 2.9 23:45:09 10° SSE 23:50:11 69° ENE 23:55:14 10° N visible
23 Nov 6.1 01:27:35 10° WSW 01:29:39 12° W 01:31:44 10° WNW visible
23 Nov 5.5 11:56:00 10° NE 12:00:15 26° E 12:04:28 10° SSE visible
23 Nov 3.7 23:09:12 10° SE 23:13:36 31° ENE 23:18:01 10° N visible
